Regional Weather Roundup
Issued by NWS Charleston, SC

Current Version | Previous Version | Graphics & Text | Print | Product List | Glossary On
Versions: 1 2 3 4 5 6 7 8 9 10 11 12 13 14 15 16 17 18 19 20 21 22 23 24 25 26 27 28 29 30 31 32 33 34 35 36 37 38 39 40 41 42 43 44 45 46 47 48 49 50
000 ASUS42 KCHS 261125 RWRCHS REGIONAL WEATHER ROUNDUP NATIONAL WEATHER SERVICE CHARLESTON SC 600 AM EST MON JAN 26 2015 NOTE: "FAIR" INDICATES FEW OR NO CLOUDS BELOW 12,000 FEET WITH NO SIGNIFICANT WEATHER AND/OR OBSTRUCTIONS TO VISIBILITY. NOT ALL STATIONS ARE QUALITY CONTROLLED BY THE NATIONAL WEATHER SERVICE. USE DATA WITH CAUTION...ESPECIALLY DEWPOINT OBSERVATIONS. SCZ027-030-031-034>040-042>050-261200- ...SOUTHEAST SOUTH CAROLINA... CITY SKY/WX TMP DP RH WIND PRES REMARKS N CHARLESTON CLOUDY 51 45 79 SW12 29.71F WATERFRONT PRK N/A 52 N/A N/A SW8 N/A MOUNT PLEASANT FAIR N/A N/A N/A SW7 29.70F PINOPOLIS NOT AVBL MONCKS CORNER FAIR 48 45 87 SW6 29.70R SUMMERVILLE NOT AVBL BEAUFORT MCAS PTCLDY 48 45 89 SW10 29.72F BEAUFORT ARPT FAIR 50 46 87 SW6 29.72F HILTON HEAD IS NOT AVBL WALTERBORO MOSUNNY 45 N/A N/A SW6 29.71S ALLENDALE FAIR 43 41 93 CALM 29.70R ...SOUTHERN MIDLANDS AND PEE DEE... CITY SKY/WX TMP DP RH WIND PRES REMARKS GEORGETOWN NOT AVBL KINGSTREE NOT AVBL ORANGEBURG CLEAR 38 35 89 SW6 29.68F WCI 33 BARNWELL N/A 41 39 93 CALM 29.70R AIKEN FAIR 41 39 93 SW5 29.71R MANNING NOT AVBL COLUMBIA CLEAR 41 36 82 W6 29.67S SUMTER CLEAR 38 36 92 S3 29.65F FLORENCE PTCLDY 43 40 89 SW3 29.67F MYRTLE BEACH NOT AVBL N MYRTLE BEACH CLOUDY 51 45 79 SW10 29.69F $$ GAZ063-065-086>088-099>101-113>116-118-119-134>141-150-261200- ...SOUTHEAST GEORGIA... CITY SKY/WX TMP DP RH WIND PRES REMARKS SAVANNAH ARPT PTCLDY 48 44 86 SW8 29.74S HUNTER AAF PTCLDY 48 47 97 SW6 29.72S FORT STEWART CLEAR 46 44 93 SW6 29.73F STATESBORO CLEAR 46 46 100 W9 29.72S SYLVANIA SUNNY 44 44 100 W5 29.72S CLAXTON FAIR 46 45 93 W5 29.74S ...CSRA...CENTRAL AND FAR SOUTHEAST GEORGIA... CITY SKY/WX TMP DP RH WIND PRES REMARKS THOMSON CLEAR 45 42 89 SW3 29.75S AUGUSTA-BUSH CLEAR 45 39 79 W9 29.70S AUGUSTA-DANIEL CLEAR 47 39 74 VRB5 29.69S SWAINSBORO FAIR 46 45 93 W7 29.74R VIDALIA CLEAR 46 45 93 W7 29.75R EASTMAN FAIR 47 46 96 W7 29.80R HAZLEHURST FAIR 48 48 100 W5 29.76R ALMA CLEAR 47 45 93 W6 29.76S WAYCROSS PTCLDY 49 49 98 W7 29.77S JESUP FAIR 48 46 93 W3 29.76S BAXLEY FAIR 46 46 100 W5 29.75S BRUNSWICK MOCLDY 52 46 82 W6 29.77S SAINT SIMONS MOCLDY 51 48 89 SW8 29.77S $$ SCZ027-028-034-036>038-045-046-048>050-GAZ119-141-261200- ...LAKE AND SUPPLEMENTAL COASTAL OBSERVATIONS... STATION/POSITION TIME TEMP WIND PRES WAVE SWELL AIR SEA DIR/SP/G HT/PER HT/PER/DIR (UTC) (F) (DEG/KT/KT) (MB) (FT/S) (FT/S/D) UPR LAKE MARION NOT AVBL WINYAH BAY 1100 50 230/ 4 1005.0S LAKE MURRAY 1000 47 250/ 8/ 10 1004.1S ACE BASIN NERRS NOT AVBL FORT PULASKI 1100 50 53 210/ 5/ 10 1007.4R SAPELO ISLAND 1100 53 240/ 9 1007.0S $$ ANZ835-935-AMZ111-154-330-350-352-354-370-450-454-472-261200- ...C-MAN AND BUOY OBSERVATIONS... STATION/POSITION TIME TEMP WIND PRES WAVE SWELL AIR SEA DIR/SP/G HT/PER HT/PER/DIR (UTC) (F) (DEG/KT/KT) (MB) (FT/S) (FT/S/D) BUOY 41004 1100 60 69 260/ 21/ 27 1005.4F 7/ 7 2/10 BUOY 41008 1100 55 55 230/ 16/ 19 1007.5F 4/ 6 FOLLY BEACH CMAN 1100 53 230/ 8/ 12 1006.5F CAPERS NEARSHORE 1000 55 260/ 17/ 21 N/A FRIPP NEARSHORE 1000 54 230/ 16/ 17 N/A STATION/POSITION TIME TEMP WIND PRES WAVE SWELL AIR SEA DIR/SP/G HT/PER HT/PER/DIR (UTC) (F) (DEG/KT/KT) (MB) (FT/S) (FT/S/D) 5E ST. MARYS GA 1100 58 N/A 3/ 5 FRYING PAN BUOY 1100 60 67 250/ 19/ 23 1005.7F 7/ 7 BUOY 41025 1100 60 69 290/ 10/ 14 1005.8F 3/ 8 3/100/ 8 CAPE LOOKOUT NC 1100 51 310/ 6/ 7 1005.5F BUOY 41002 1009 69 72 220/ 21/ 27 1008.6F 5/ 6 2/ 50/ 9 BUOY 41010 1100 67 76 260/ 16/ 19 1010.8F 4/ 5 2/110/10 ST AUGUSTINE FL 1100 54 230/ 6/ 8 1009.4F $$

USA.gov is the U.S. government's official web portal to all federal, state and local government web resources and services.